Regional Weather Roundup
Issued by NWS

Home | Current Version | Previous Version | Graphics & Text | Print | Product List | Glossary On
Versions: 1 2 3 4 5 6 7 8 9 10 11 12 13 14 15 16 17 18 19 20 21 22 23 24 25 26 27 28 29 30 31 32 33 34 35 36 37 38 39 40 41 42 43 44 45 46 47 48 49 50
000
ASUS43 KDTX 180710
RWRMI
MICHIGAN HOURLY REGIONAL WEATHER ROUNDUP
NATIONAL WEATHER SERVICE DETROIT/PONTIAC MI
200 AM EST SAT NOV 18 2017

NOTE: "FAIR" INDICATES FEW OR NO CLOUDS BELOW 12,000 FEET WITH NO
SIGNIFICANT WEATHER AND/OR OBSTRUCTION TO VISIBILITY.

MIZ047>049-052>055-059>063-066>070-074>076-081>083-180800-
SOUTHEAST LOWER MICHIGAN

CITY           SKY/WX    TMP DP  RH WIND       PRES   REMARKS
ADRIAN         LGT RAIN  41  40  96 SW13      29.63F
ALMA           CLOUDY    41  41  99 S9G18     29.58F FOG
ANN ARBOR      LGT RAIN  40  40 100 S7        29.62F FOG
BAD AXE        LGT SNOW  38  37  94 S7        29.62F WCI  33
CARO           CLOUDY    40  38  96 S12       29.60F WCI  32
DETROIT CITY   HVY RAIN  53  40  61 S12       29.66F
DETROIT        RAIN      41  40  96 S8        29.64F FOG
FLINT          LGT RAIN  41  38  89 S14       29.61F
GROSSE ILE     LGT SNOW  42  40  93 S15G24    29.64F
HILLSDALE      DRIZZLE   41  39  93 S14G26    29.58F
HOWELL         RAIN      40  40  98 S8        29.62F WCI  35

CITY           SKY/WX    TMP DP  RH WIND       PRES   REMARKS
JACKSON        RAIN      43  40  89 SW8       29.60F FOG
LAMBERTVILLE   RAIN      44  41  90 S12       29.64F
LANSING        LGT RAIN  41  40  96 S10       29.60F FOG
LAPEER         LGT RAIN  40  39  96 SW12      29.62R WCI  33
MASON          DRIZZLE   41  39  93 S5        29.61F
MONROE         LGT RAIN  42  40  92 S10G17    29.63F
MT. CLEMENS    MIX PCPN  41  41 100 S14       29.63F
PONTIAC        RAIN      40  39  97 S13G22    29.63F FOG     WCI  32
PORT HOPE        N/A     40  37  89 VRB3      29.61F
PORT HURON     MIX PCPN  39  36  87 S16       29.65F WCI  30
TRI CITIES     CLOUDY    41  41 100 S8        29.59F FOG
MIDLAND        CLOUDY    40  40  98 S5        29.57F FOG
TROY           MIX PCPN  42  40  91 S12G24    29.66F
SAGINAW HB     CLOUDY    39  37  93 S10       29.59F WCI  32
$$
MIZ043>046-050>051-056>058-064>065-071>073-077>080-180800-
SOUTHWEST LOWER MICHIGAN

CITY           SKY/WX    TMP DP  RH WIND       PRES   REMARKS
BATTLE CREEK   LGT RAIN  42  41  96 SW7       29.61S FOG
BENTON HARBOR  LGT RAIN  44  41  89 CALM      29.59F FOG
BIG RAPIDS     CLOUDY    40  38  95 SW5       29.54F FOG
COLDWATER      DRIZZLE   43  43 100 S7        29.58F
FREMONT        DRIZZLE   41  41 100 SW6       29.55S
HOLLAND        CLOUDY    43  41  93 S8        29.57F FOG
GRAND RAPIDS   CLOUDY    42  42 100 S9        29.57F FOG
IONIA          CLOUDY    41  40  97 S9        29.57F FOG
KALAMAZOO      LGT RAIN  43  40  89 S3        29.60S FOG
LUDINGTON      HVY RAIN  42  41  94 W6        29.54F
MARSHALL       DRIZZLE   42  41  98 W3        29.60S
MOUNT PLEASANT CLOUDY    40  39  95 S3        29.55F FOG
MUSKEGON       CLOUDY    47  43  86 SW12      29.56F
SOUTH HAVEN    DRIZZLE   44  43  95 S6        29.58F
$$
MIZ016>042-180800-
NORTHERN LOWER MICHIGAN

CITY           SKY/WX    TMP DP  RH WIND       PRES   REMARKS
ALPENA         LGT RAIN  36  36 100 E5        29.59F FOG     WCI  32
BEAVER ISLAND  LGT RAIN  38  38  99 E3        29.54F
BELLAIRE       MIX PCPN  37  37 100 CALM      29.55F
CADILLAC       LGT RAIN  37  36  99 S5        29.53F WCI  33
CHARLEVOIX     LGT RAIN  37  37 100 SE5       29.57S WCI  33
FRANKFORT      DRIZZLE   42  42 100 W5        29.54F
GAYLORD        LGT RAIN  33  32  96 S6        29.54F FOG     WCI  28
GRAYLING       LGT RAIN  35  34  96 E3        29.56F
HARBOR SPRINGS RAIN      34  33  98 NE5       29.56S WCI  30
HOUGHTON LAKE  LGT RAIN  36  35  96 VRB5      29.56S WCI  32
MANISTEE       LGT RAIN  39  39 100 CALM      29.54F FOG
OSCODA         MIX PCPN  38  37  95 SE6       29.59F WCI  34
PELLSTON       LGT RAIN  34  34 100 SE3       29.57F FOG
ROGERS CITY    LGT SNOW  33  32  97 SE10      29.59F WCI  25
TRAVERSE CITY  CLOUDY    38  37  97 CALM      29.54F FOG
$$
MIZ007>008-015-180800-
EASTERN UPPER MICHIGAN

CITY           SKY/WX    TMP DP  RH WIND       PRES   REMARKS
KINROSS        LGT SNOW  32  32 100 SE6       29.58F FOG     WCI  26
MACKINAC ISLAN LGT SNOW  35  35 100 E5        29.57S WCI  31
NEWBERRY       CLOUDY    32  31  97 CALM      29.56S FOG
S. S. MARIE    LGT SNOW  33  32  96 E5        29.58F VSB 1   WCI  29
MUNISING         N/A     38  37  97 N12       29.57F WCI  30
$$
MIZ004>006-011>014-085-180800-
CENTRAL UPPER MICHIGAN

CITY           SKY/WX    TMP DP  RH WIND       PRES   REMARKS
MANISTIQUE     CLOUDY    35  30  83 N9        29.55F WCI  28
ESCANABA       CLOUDY    35  34  96 NW7       29.58F WCI  29
SAWYER-GWINN   CLOUDY    33  32  97 N8        29.57F FOG     WCI  26
$$
MIZ001>003-009>011-084-180800-
WESTERN UPPER MICHIGAN

CITY           SKY/WX    TMP DP  RH WIND       PRES   REMARKS
IRON MOUNTAIN  CLOUDY    34  31  88 N9        29.56F WCI  27
HOUGHTON       CLOUDY    35  31  85 N3        29.60F
COPPER HARBOR    N/A     39  34  82 NE16      29.61S WCI  30
IRONWOOD       FOG      N/A N/A N/A NW5       29.63R VSB 3/4
$$

ABBREVIATIONS USED IN REMARKS
   TC - TEMPERATURE IN CELSIUS
  WCI - WIND CHILL INDEX
   HX - HEAT INDEX
  VSB - VISIBILITY





USA.gov is the U.S. government's official web portal to all federal, state and local government web resources and services.